Year,Month,Day,Hour,Minute,Value (Times are PST for temperature in C)
2007,10,13,00,00,3.60
2007,10,13,00,01,3.60
2007,10,13,00,02,3.60
2007,10,13,00,03,3.50
2007,10,13,00,04,3.50
2007,10,13,00,05,3.50
2007,10,13,00,06,3.50
2007,10,13,00,07,3.50
2007,10,13,00,08,3.50
2007,10,13,00,09,3.50
2007,10,13,00,10,3.50
2007,10,13,00,11,3.50
2007,10,13,00,12,3.50
2007,10,13,00,13,3.50
2007,10,13,00,14,3.50
2007,10,13,00,15,3.40
2007,10,13,00,16,3.40
2007,10,13,00,17,3.40
2007,10,13,00,18,3.40
2007,10,13,00,19,3.40
2007,10,13,00,20,3.40
2007,10,13,00,21,3.40
2007,10,13,00,22,3.40
2007,10,13,00,23,3.40
2007,10,13,00,24,3.40
2007,10,13,00,25,3.40
2007,10,13,00,26,3.40
2007,10,13,00,27,3.40
2007,10,13,00,28,3.40
2007,10,13,00,29,3.40
2007,10,13,00,30,3.40
2007,10,13,00,31,3.40
2007,10,13,00,32,3.30
2007,10,13,00,33,3.30
2007,10,13,00,34,3.30
2007,10,13,00,35,3.30
2007,10,13,00,36,3.30
2007,10,13,00,37,3.30
2007,10,13,00,38,3.30
2007,10,13,00,39,3.30
2007,10,13,00,40,3.30
2007,10,13,00,41,3.30
2007,10,13,00,42,3.30
2007,10,13,00,43,3.30
2007,10,13,00,44,3.30
2007,10,13,00,45,3.30
2007,10,13,00,46,3.30
2007,10,13,00,47,3.30
2007,10,13,00,48,3.30
2007,10,13,00,49,3.30
2007,10,13,00,50,3.30
2007,10,13,00,51,3.30
2007,10,13,00,52,3.30
2007,10,13,00,53,3.30
2007,10,13,00,54,3.30
2007,10,13,00,55,3.30
2007,10,13,00,56,3.30
2007,10,13,00,57,3.20
2007,10,13,00,58,3.20
2007,10,13,00,59,3.20
2007,10,13,01,00,3.20
2007,10,13,01,01,3.20
2007,10,13,01,02,3.20
2007,10,13,01,03,3.20
2007,10,13,01,04,3.20
2007,10,13,01,05,3.20
2007,10,13,01,06,3.20
2007,10,13,01,07,3.20
2007,10,13,01,08,3.20
2007,10,13,01,09,3.20
2007,10,13,01,10,3.20
2007,10,13,01,11,3.20
2007,10,13,01,12,3.20
2007,10,13,01,13,3.20
2007,10,13,01,14,3.20
2007,10,13,01,15,3.10
2007,10,13,01,16,3.10
2007,10,13,01,17,3.10
2007,10,13,01,18,3.10
2007,10,13,01,19,3.10
2007,10,13,01,20,3.10
2007,10,13,01,21,3.10
2007,10,13,01,22,3.10
2007,10,13,01,23,3.10
2007,10,13,01,24,3.10
2007,10,13,01,25,3.10
2007,10,13,01,26,3.10
2007,10,13,01,27,3.10
2007,10,13,01,28,3.00
2007,10,13,01,29,3.10
2007,10,13,01,30,3.00
2007,10,13,01,31,3.00
2007,10,13,01,32,3.00
2007,10,13,01,33,3.00
2007,10,13,01,34,3.00
2007,10,13,01,35,3.00
2007,10,13,01,36,3.00
2007,10,13,01,37,3.00
2007,10,13,01,38,3.00
2007,10,13,01,39,2.90
2007,10,13,01,40,2.90
2007,10,13,01,41,2.90
2007,10,13,01,42,2.90
2007,10,13,01,43,2.90
2007,10,13,01,44,2.90
2007,10,13,01,45,2.90
2007,10,13,01,46,2.90
2007,10,13,01,47,2.90
2007,10,13,01,48,2.90
2007,10,13,01,49,2.90
2007,10,13,01,50,2.80
2007,10,13,01,51,2.80
2007,10,13,01,52,2.80
2007,10,13,01,53,2.80
2007,10,13,01,54,2.80
2007,10,13,01,55,2.80
2007,10,13,01,56,2.80
2007,10,13,01,57,2.80
2007,10,13,01,58,2.80
2007,10,13,01,59,2.80
2007,10,13,02,00,2.80
2007,10,13,02,01,2.80
2007,10,13,02,02,2.80
2007,10,13,02,03,2.80
2007,10,13,02,04,2.80
2007,10,13,02,05,2.80
2007,10,13,02,06,2.80
2007,10,13,02,07,2.80
2007,10,13,02,08,2.80
2007,10,13,02,09,2.80
2007,10,13,02,10,2.80
2007,10,13,02,11,2.80
2007,10,13,02,12,2.80
2007,10,13,02,13,2.80
2007,10,13,02,14,2.80
2007,10,13,02,15,2.80
2007,10,13,02,16,2.80
2007,10,13,02,17,2.80
2007,10,13,02,18,2.80
2007,10,13,02,19,2.80
2007,10,13,02,20,2.80
2007,10,13,02,21,2.80
2007,10,13,02,22,2.80
2007,10,13,02,23,2.80
2007,10,13,02,24,2.80
2007,10,13,02,25,2.80
2007,10,13,02,26,2.80
2007,10,13,02,27,2.80
2007,10,13,02,28,2.80
2007,10,13,02,29,2.70
2007,10,13,02,30,2.70
2007,10,13,02,31,2.70
2007,10,13,02,32,2.70
2007,10,13,02,33,2.70
2007,10,13,02,34,2.70
2007,10,13,02,35,2.70
2007,10,13,02,36,2.70
2007,10,13,02,37,2.70
2007,10,13,02,38,2.70
2007,10,13,02,39,2.60
2007,10,13,02,40,2.60
2007,10,13,02,41,2.60
2007,10,13,02,42,2.60
2007,10,13,02,43,2.60
2007,10,13,02,44,2.60
2007,10,13,02,45,2.60
2007,10,13,02,46,2.60
2007,10,13,02,47,2.60
2007,10,13,02,48,2.60
2007,10,13,02,49,2.60
2007,10,13,02,50,2.60
2007,10,13,02,51,2.60
2007,10,13,02,52,2.60
2007,10,13,02,53,2.60
2007,10,13,02,54,2.60
2007,10,13,02,55,2.60
2007,10,13,02,56,2.60
2007,10,13,02,57,2.60
2007,10,13,02,58,2.60
2007,10,13,02,59,2.50
2007,10,13,03,00,2.50
2007,10,13,03,01,2.50
2007,10,13,03,02,2.50
2007,10,13,03,03,2.50
2007,10,13,03,04,2.50
2007,10,13,03,05,2.50
2007,10,13,03,06,2.50
2007,10,13,03,07,2.50
2007,10,13,03,08,2.40
2007,10,13,03,09,2.40
2007,10,13,03,10,2.40
2007,10,13,03,11,2.40
2007,10,13,03,12,2.40
2007,10,13,03,13,2.40
2007,10,13,03,14,2.40
2007,10,13,03,15,2.40
2007,10,13,03,16,2.40
2007,10,13,03,17,2.40
2007,10,13,03,18,2.40
2007,10,13,03,19,2.40
2007,10,13,03,20,2.40
2007,10,13,03,21,2.30
2007,10,13,03,22,2.30
2007,10,13,03,23,2.30
2007,10,13,03,24,2.30
2007,10,13,03,25,2.30
2007,10,13,03,26,2.30
2007,10,13,03,27,2.30
2007,10,13,03,28,2.30
2007,10,13,03,29,2.30
2007,10,13,03,30,2.30
2007,10,13,03,31,2.30
2007,10,13,03,32,2.30
2007,10,13,03,33,2.30
2007,10,13,03,34,2.30
2007,10,13,03,35,2.30
2007,10,13,03,36,2.30
2007,10,13,03,37,2.30
2007,10,13,03,38,2.30
2007,10,13,03,39,2.30
2007,10,13,03,40,2.30
2007,10,13,03,41,2.30
2007,10,13,03,42,2.30
2007,10,13,03,43,2.30
2007,10,13,03,44,2.30
2007,10,13,03,45,2.30
2007,10,13,03,46,2.30
2007,10,13,03,47,2.30
2007,10,13,03,48,2.30
2007,10,13,03,49,2.30
2007,10,13,03,50,2.30
2007,10,13,03,51,2.30
2007,10,13,03,52,2.30
2007,10,13,03,53,2.30
2007,10,13,03,54,2.30
2007,10,13,03,55,2.30
2007,10,13,03,56,2.30
2007,10,13,03,57,2.30
2007,10,13,03,58,2.30
2007,10,13,03,59,2.30
2007,10,13,04,00,2.30
2007,10,13,04,01,2.30
2007,10,13,04,02,2.30
2007,10,13,04,03,2.30
2007,10,13,04,04,2.30
2007,10,13,04,05,2.30
2007,10,13,04,06,2.30
2007,10,13,04,07,2.30
2007,10,13,04,08,2.30
2007,10,13,04,09,2.20
2007,10,13,04,10,2.20
2007,10,13,04,11,2.20
2007,10,13,04,12,2.20
2007,10,13,04,13,2.20
2007,10,13,04,14,2.20
2007,10,13,04,15,2.20
2007,10,13,04,16,2.20
2007,10,13,04,17,2.20
2007,10,13,04,18,2.20
2007,10,13,04,19,2.10
2007,10,13,04,20,2.20
2007,10,13,04,21,2.10
2007,10,13,04,22,2.10
2007,10,13,04,23,2.10
2007,10,13,04,24,2.10
2007,10,13,04,25,2.10
2007,10,13,04,26,2.10
2007,10,13,04,27,2.10
2007,10,13,04,28,2.10
2007,10,13,04,29,2.10
2007,10,13,04,30,2.10
2007,10,13,04,31,2.10
2007,10,13,04,32,2.10
2007,10,13,04,33,2.10
2007,10,13,04,34,2.10
2007,10,13,04,35,2.10
2007,10,13,04,36,2.10
2007,10,13,04,37,2.10
2007,10,13,04,38,2.10
2007,10,13,04,39,2.10
2007,10,13,04,40,2.10
2007,10,13,04,41,2.10
2007,10,13,04,42,2.10
2007,10,13,04,43,2.10
2007,10,13,04,44,2.10
2007,10,13,04,45,2.10
2007,10,13,04,46,2.00
2007,10,13,04,47,2.00
2007,10,13,04,48,2.00
2007,10,13,04,49,2.00
2007,10,13,04,50,2.00
2007,10,13,04,51,2.00
2007,10,13,04,52,2.00
2007,10,13,04,53,2.00
2007,10,13,04,54,2.00
2007,10,13,04,55,2.00
2007,10,13,04,56,2.00
2007,10,13,04,57,2.00
2007,10,13,04,58,2.00
2007,10,13,04,59,2.00
2007,10,13,05,00,2.00
2007,10,13,05,01,2.00
2007,10,13,05,02,2.00
2007,10,13,05,03,2.00
2007,10,13,05,04,2.00
2007,10,13,05,05,2.00
2007,10,13,05,06,2.00
2007,10,13,05,07,2.00
2007,10,13,05,08,2.00
2007,10,13,05,09,2.00
2007,10,13,05,10,2.00
2007,10,13,05,11,2.00
2007,10,13,05,12,2.00
2007,10,13,05,13,2.00
2007,10,13,05,14,2.00
2007,10,13,05,15,2.00
2007,10,13,05,16,2.00
2007,10,13,05,17,2.00
2007,10,13,05,18,2.00
2007,10,13,05,19,2.00
2007,10,13,05,20,2.00
2007,10,13,05,21,2.00
2007,10,13,05,22,2.00
2007,10,13,05,23,2.00
2007,10,13,05,24,2.00
2007,10,13,05,25,2.00
2007,10,13,05,26,2.00
2007,10,13,05,27,1.90
2007,10,13,05,28,1.90
2007,10,13,05,29,1.90
2007,10,13,05,30,1.90
2007,10,13,05,31,1.90
2007,10,13,05,32,1.90
2007,10,13,05,33,1.90
2007,10,13,05,34,1.90
2007,10,13,05,35,1.90
2007,10,13,05,36,1.90
2007,10,13,05,37,1.90
2007,10,13,05,38,1.90
2007,10,13,05,39,1.90
2007,10,13,05,40,1.90
2007,10,13,05,41,1.90
2007,10,13,05,42,1.90
2007,10,13,05,43,1.90
2007,10,13,05,44,1.90
2007,10,13,05,45,1.90
2007,10,13,05,46,1.90
2007,10,13,05,47,1.90
2007,10,13,05,48,1.90
2007,10,13,05,49,1.90
2007,10,13,05,50,1.90
2007,10,13,05,51,1.90
2007,10,13,05,52,1.90
2007,10,13,05,53,1.90
2007,10,13,05,54,1.90
2007,10,13,05,55,1.90
2007,10,13,05,56,1.90
2007,10,13,05,57,1.90
2007,10,13,05,58,1.90
2007,10,13,05,59,1.90
2007,10,13,06,00,1.90
2007,10,13,06,01,2.00
2007,10,13,06,02,2.00
2007,10,13,06,03,2.00
2007,10,13,06,04,2.00
2007,10,13,06,05,2.00
2007,10,13,06,06,2.00
2007,10,13,06,07,2.00
2007,10,13,06,08,2.00
2007,10,13,06,09,2.00
2007,10,13,06,10,2.10
2007,10,13,06,11,2.10
2007,10,13,06,12,2.10
2007,10,13,06,13,2.10
2007,10,13,06,14,2.10
2007,10,13,06,15,2.10
2007,10,13,06,16,2.10
2007,10,13,06,17,2.10
2007,10,13,06,18,2.10
2007,10,13,06,19,2.10
2007,10,13,06,20,2.10
2007,10,13,06,21,2.10
2007,10,13,06,22,2.10
2007,10,13,06,23,2.10
2007,10,13,06,24,2.10
2007,10,13,06,25,2.10
2007,10,13,06,26,2.10
2007,10,13,06,27,2.00
2007,10,13,06,28,2.00
2007,10,13,06,29,2.00
2007,10,13,06,30,2.00
2007,10,13,06,31,2.00
2007,10,13,06,32,2.00
2007,10,13,06,33,2.00
2007,10,13,06,34,2.00
2007,10,13,06,35,2.00
2007,10,13,06,36,2.00
2007,10,13,06,37,2.00
2007,10,13,06,38,2.00
2007,10,13,06,39,2.00
2007,10,13,06,40,2.00
2007,10,13,06,41,2.10
2007,10,13,06,42,2.10
2007,10,13,06,43,2.10
2007,10,13,06,44,2.10
2007,10,13,06,45,2.10
2007,10,13,06,46,2.10
2007,10,13,06,47,2.10
2007,10,13,06,48,2.20
2007,10,13,06,49,2.20
2007,10,13,06,50,2.20
2007,10,13,06,51,2.20
2007,10,13,06,52,2.20
2007,10,13,06,53,2.20
2007,10,13,06,54,2.20
2007,10,13,06,55,2.20
2007,10,13,06,56,2.10
2007,10,13,06,57,2.10
2007,10,13,06,58,2.10
2007,10,13,06,59,2.10
2007,10,13,07,00,2.10
2007,10,13,07,01,2.10
2007,10,13,07,02,2.10
2007,10,13,07,03,2.10
2007,10,13,07,04,2.10
2007,10,13,07,05,2.10
2007,10,13,07,06,2.10
2007,10,13,07,07,2.10
2007,10,13,07,08,2.10
2007,10,13,07,09,2.00
2007,10,13,07,10,2.00
2007,10,13,07,11,2.00
2007,10,13,07,12,2.00
2007,10,13,07,13,2.00
2007,10,13,07,14,2.00
2007,10,13,07,15,2.00
2007,10,13,07,16,2.00
2007,10,13,07,17,2.00
2007,10,13,07,18,2.00
2007,10,13,07,19,2.00
2007,10,13,07,20,2.00
2007,10,13,07,21,2.10
2007,10,13,07,22,2.10
2007,10,13,07,23,2.10
2007,10,13,07,24,2.10
2007,10,13,07,25,2.00
2007,10,13,07,26,2.00
2007,10,13,07,27,2.00
2007,10,13,07,28,2.00
2007,10,13,07,29,2.00
2007,10,13,07,30,1.90
2007,10,13,07,31,1.90
2007,10,13,07,32,1.90
2007,10,13,07,33,1.90
2007,10,13,07,34,2.00
2007,10,13,07,35,2.00
2007,10,13,07,36,2.00
2007,10,13,07,37,2.00
2007,10,13,07,38,2.00
2007,10,13,07,39,2.00
2007,10,13,07,40,2.00
2007,10,13,07,41,2.00
2007,10,13,07,42,2.00
2007,10,13,07,43,2.00
2007,10,13,07,44,2.10
2007,10,13,07,45,2.10
2007,10,13,07,46,2.10
2007,10,13,07,47,2.00
2007,10,13,07,48,2.00
2007,10,13,07,49,2.00
2007,10,13,07,50,2.00
2007,10,13,07,51,2.00
2007,10,13,07,52,2.00
2007,10,13,07,53,2.00
2007,10,13,07,54,2.00
2007,10,13,07,55,2.00
2007,10,13,07,56,2.00
2007,10,13,07,57,2.00
2007,10,13,07,58,2.00
2007,10,13,07,59,2.00
2007,10,13,08,00,2.00
2007,10,13,08,01,2.00
2007,10,13,08,02,2.00
2007,10,13,08,03,2.00
2007,10,13,08,04,2.00
2007,10,13,08,05,2.00
2007,10,13,08,06,2.00
2007,10,13,08,07,2.00
2007,10,13,08,08,2.00
2007,10,13,08,09,2.10
2007,10,13,08,10,2.10
2007,10,13,08,11,2.10
2007,10,13,08,12,2.10
2007,10,13,08,13,2.10
2007,10,13,08,14,2.10
2007,10,13,08,15,2.10
2007,10,13,08,16,2.10
2007,10,13,08,17,2.10
2007,10,13,08,18,2.20
2007,10,13,08,19,2.20
2007,10,13,08,20,2.20
2007,10,13,08,21,2.20
2007,10,13,08,22,2.20
2007,10,13,08,23,2.20
2007,10,13,08,24,2.20
2007,10,13,08,25,2.20
2007,10,13,08,26,2.20
2007,10,13,08,27,2.20
2007,10,13,08,28,2.20
2007,10,13,08,29,2.20
2007,10,13,08,30,2.30
2007,10,13,08,31,2.30
2007,10,13,08,32,2.30
2007,10,13,08,33,2.30
2007,10,13,08,34,2.30
2007,10,13,08,35,2.30
2007,10,13,08,36,2.40
2007,10,13,08,37,2.40
2007,10,13,08,38,2.40
2007,10,13,08,39,2.50
2007,10,13,08,40,2.50
2007,10,13,08,41,2.60
2007,10,13,08,42,2.60
2007,10,13,08,43,2.70
2007,10,13,08,44,2.70
2007,10,13,08,45,2.70
2007,10,13,08,46,2.80
2007,10,13,08,47,2.80
2007,10,13,08,48,2.90
2007,10,13,08,49,3.00
2007,10,13,08,50,3.00
2007,10,13,08,51,3.10
2007,10,13,08,52,3.10
2007,10,13,08,53,3.20
2007,10,13,08,54,3.20
2007,10,13,08,55,3.20
2007,10,13,08,56,3.30
2007,10,13,08,57,3.30
2007,10,13,08,58,3.40
2007,10,13,08,59,3.50
2007,10,13,09,00,3.60
2007,10,13,09,01,3.60
2007,10,13,09,02,3.70
2007,10,13,09,03,3.80
2007,10,13,09,04,3.80
2007,10,13,09,05,3.90
2007,10,13,09,06,4.00
2007,10,13,09,07,4.10
2007,10,13,09,08,4.20
2007,10,13,09,09,4.30
2007,10,13,09,10,4.30
2007,10,13,09,11,4.40
2007,10,13,09,12,4.50
2007,10,13,09,13,4.50
2007,10,13,09,14,4.60
2007,10,13,09,15,4.70
2007,10,13,09,16,4.70
2007,10,13,09,17,4.80
2007,10,13,09,18,4.90
2007,10,13,09,19,5.00
2007,10,13,09,20,5.10
2007,10,13,09,21,5.20
2007,10,13,09,22,5.30
2007,10,13,09,23,5.30
2007,10,13,09,24,5.40
2007,10,13,09,25,5.50
2007,10,13,09,26,5.60
2007,10,13,09,27,5.70
2007,10,13,09,28,5.70
2007,10,13,09,29,5.80
2007,10,13,09,30,5.90
2007,10,13,09,31,6.00
2007,10,13,09,32,6.00
2007,10,13,09,33,6.10
2007,10,13,09,34,6.20
2007,10,13,09,35,6.30
2007,10,13,09,36,6.30
2007,10,13,09,37,6.40
2007,10,13,09,38,6.50
2007,10,13,09,39,6.60
2007,10,13,09,40,6.70
2007,10,13,09,41,6.80
2007,10,13,09,42,6.90
2007,10,13,09,43,7.00
2007,10,13,09,44,7.10
2007,10,13,09,45,7.20
2007,10,13,09,46,7.20
2007,10,13,09,47,7.30
2007,10,13,09,48,7.40
2007,10,13,09,49,7.40
2007,10,13,09,50,7.50
2007,10,13,09,51,7.60
2007,10,13,09,52,7.60
2007,10,13,09,53,7.70
2007,10,13,09,54,7.80
2007,10,13,09,55,7.80
2007,10,13,09,56,7.80
2007,10,13,09,57,7.90
2007,10,13,09,58,7.90
2007,10,13,09,59,8.00
2007,10,13,10,00,8.00
2007,10,13,10,01,8.00
2007,10,13,10,02,8.00
2007,10,13,10,03,8.00
2007,10,13,10,04,8.00
2007,10,13,10,05,8.00
2007,10,13,10,06,8.00
2007,10,13,10,07,8.00
2007,10,13,10,08,8.10
2007,10,13,10,09,8.10
2007,10,13,10,10,8.20
2007,10,13,10,11,8.40
2007,10,13,10,12,8.50
2007,10,13,10,13,8.60
2007,10,13,10,14,8.70
2007,10,13,10,15,8.80
2007,10,13,10,16,8.90
2007,10,13,10,17,8.90
2007,10,13,10,18,9.00
2007,10,13,10,19,9.10
2007,10,13,10,20,9.20
2007,10,13,10,21,9.30
2007,10,13,10,22,9.30
2007,10,13,10,23,9.30
2007,10,13,10,24,9.40
2007,10,13,10,25,9.40
2007,10,13,10,26,9.50
2007,10,13,10,27,9.60
2007,10,13,10,28,9.60
2007,10,13,10,29,9.60
2007,10,13,10,30,9.70
2007,10,13,10,31,9.70
2007,10,13,10,32,9.80
2007,10,13,10,33,9.80
2007,10,13,10,34,9.80
2007,10,13,10,35,9.90
2007,10,13,10,36,9.90
2007,10,13,10,37,9.90
2007,10,13,10,38,10.00
2007,10,13,10,39,10.10
2007,10,13,10,40,10.10
2007,10,13,10,41,10.20
2007,10,13,10,42,10.20
2007,10,13,10,43,10.30
2007,10,13,10,44,10.30
2007,10,13,10,45,10.30
2007,10,13,10,46,10.40
2007,10,13,10,47,10.40
2007,10,13,10,48,10.50
2007,10,13,10,49,10.50
2007,10,13,10,50,10.60
2007,10,13,10,51,10.60
2007,10,13,10,52,10.60
2007,10,13,10,53,10.60
2007,10,13,10,54,10.70
2007,10,13,10,55,10.70
2007,10,13,10,56,10.70
2007,10,13,10,57,10.70
2007,10,13,10,58,10.80
2007,10,13,10,59,10.80
2007,10,13,11,00,10.80
2007,10,13,11,01,10.80
2007,10,13,11,02,10.80
2007,10,13,11,03,10.80
2007,10,13,11,04,10.80
2007,10,13,11,05,10.80
2007,10,13,11,06,10.80
2007,10,13,11,07,10.90
2007,10,13,11,08,10.90
2007,10,13,11,09,10.90
2007,10,13,11,10,10.90
2007,10,13,11,11,11.00
2007,10,13,11,12,11.00
2007,10,13,11,13,11.10
2007,10,13,11,14,11.10
2007,10,13,11,15,11.10
2007,10,13,11,16,11.10
2007,10,13,11,17,11.10
2007,10,13,11,18,11.10
2007,10,13,11,19,11.10
2007,10,13,11,20,11.10
2007,10,13,11,21,11.10
2007,10,13,11,22,11.10
2007,10,13,11,23,11.10
2007,10,13,11,24,11.10
2007,10,13,11,25,11.10
2007,10,13,11,26,11.10
2007,10,13,11,27,11.20
2007,10,13,11,28,11.20
2007,10,13,11,29,11.20
2007,10,13,11,30,11.20
2007,10,13,11,31,11.20
2007,10,13,11,32,11.20
2007,10,13,11,33,11.20
2007,10,13,11,34,11.30
2007,10,13,11,35,11.30
2007,10,13,11,36,11.30
2007,10,13,11,37,11.30
2007,10,13,11,38,11.30
2007,10,13,11,39,11.30
2007,10,13,11,40,11.30
2007,10,13,11,41,11.30
2007,10,13,11,42,11.40
2007,10,13,11,43,11.40
2007,10,13,11,44,11.40
2007,10,13,11,45,11.50
2007,10,13,11,46,11.60
2007,10,13,11,47,11.70
2007,10,13,11,48,11.70
2007,10,13,11,49,11.80
2007,10,13,11,50,11.90
2007,10,13,11,51,11.90
2007,10,13,11,52,12.00
2007,10,13,11,53,12.00
2007,10,13,11,54,12.10
2007,10,13,11,55,12.20
2007,10,13,11,56,12.30
2007,10,13,11,57,12.40
2007,10,13,11,58,12.40
2007,10,13,11,59,12.50
2007,10,13,12,00,12.50
2007,10,13,12,01,12.40
2007,10,13,12,02,12.40
2007,10,13,12,03,12.40
2007,10,13,12,04,12.40
2007,10,13,12,05,12.40
2007,10,13,12,06,12.40
2007,10,13,12,07,12.40
2007,10,13,12,08,12.40
2007,10,13,12,09,12.40
2007,10,13,12,10,12.40
2007,10,13,12,11,12.40
2007,10,13,12,12,12.40
2007,10,13,12,13,12.50
2007,10,13,12,14,12.50
2007,10,13,12,15,12.60
2007,10,13,12,16,12.60
2007,10,13,12,17,12.60
2007,10,13,12,18,12.60
2007,10,13,12,19,12.60
2007,10,13,12,20,12.70
2007,10,13,12,21,12.70
2007,10,13,12,22,12.70
2007,10,13,12,23,12.70
2007,10,13,12,24,12.70
2007,10,13,12,25,12.70
2007,10,13,12,26,12.70
2007,10,13,12,27,12.80
2007,10,13,12,28,12.80
2007,10,13,12,29,12.80
2007,10,13,12,30,12.80
2007,10,13,12,31,12.80
2007,10,13,12,32,12.90
2007,10,13,12,33,12.90
2007,10,13,12,34,13.00
2007,10,13,12,35,13.00
2007,10,13,12,36,13.10
2007,10,13,12,37,13.10
2007,10,13,12,38,13.10
2007,10,13,12,39,13.10
2007,10,13,12,40,13.10
2007,10,13,12,41,13.10
2007,10,13,12,42,13.20
2007,10,13,12,43,13.20
2007,10,13,12,44,13.30
2007,10,13,12,45,13.40
2007,10,13,12,46,13.40
2007,10,13,12,47,13.50
2007,10,13,12,48,13.60
2007,10,13,12,49,13.60
2007,10,13,12,50,13.70
2007,10,13,12,51,13.70
2007,10,13,12,52,13.70
2007,10,13,12,53,13.70
2007,10,13,12,54,13.70
2007,10,13,12,55,13.70
2007,10,13,12,56,13.70
2007,10,13,12,57,13.70
2007,10,13,12,58,13.70
2007,10,13,12,59,13.70
2007,10,13,13,00,13.80
2007,10,13,13,01,13.80
2007,10,13,13,02,13.80
2007,10,13,13,03,13.80
2007,10,13,13,04,13.80
2007,10,13,13,05,13.90
2007,10,13,13,06,14.00
2007,10,13,13,07,14.00
2007,10,13,13,08,14.10
2007,10,13,13,09,14.10
2007,10,13,13,10,14.20
2007,10,13,13,11,14.30
2007,10,13,13,12,14.30
2007,10,13,13,13,14.30
2007,10,13,13,14,14.30
2007,10,13,13,15,14.40
2007,10,13,13,16,14.40
2007,10,13,13,17,14.40
2007,10,13,13,18,14.30
2007,10,13,13,19,14.30
2007,10,13,13,20,14.30
2007,10,13,13,21,14.30
2007,10,13,13,22,14.30
2007,10,13,13,23,14.30
2007,10,13,13,24,14.30
2007,10,13,13,25,14.40
2007,10,13,13,26,14.50
2007,10,13,13,27,14.50
2007,10,13,13,28,14.60
2007,10,13,13,29,14.60
2007,10,13,13,30,14.70
2007,10,13,13,31,14.70
2007,10,13,13,32,14.70
2007,10,13,13,33,14.70
2007,10,13,13,34,14.70
2007,10,13,13,35,14.60
2007,10,13,13,36,14.60
2007,10,13,13,37,14.60
2007,10,13,13,38,14.70
2007,10,13,13,39,14.70
2007,10,13,13,40,14.70
2007,10,13,13,41,14.60
2007,10,13,13,42,14.50
2007,10,13,13,43,14.50
2007,10,13,13,44,14.40
2007,10,13,13,45,14.40
2007,10,13,13,46,14.30
2007,10,13,13,47,14.40
2007,10,13,13,48,14.40
2007,10,13,13,49,14.50
2007,10,13,13,50,14.60
2007,10,13,13,51,14.60
2007,10,13,13,52,14.60
2007,10,13,13,53,14.70
2007,10,13,13,54,14.80
2007,10,13,13,55,14.80
2007,10,13,13,56,14.90
2007,10,13,13,57,15.00
2007,10,13,13,58,15.00
2007,10,13,13,59,15.00
2007,10,13,14,00,15.00
2007,10,13,14,01,15.00
2007,10,13,14,02,15.00
2007,10,13,14,03,15.00
2007,10,13,14,04,15.00
2007,10,13,14,05,15.10
2007,10,13,14,06,15.10
2007,10,13,14,07,15.20
2007,10,13,14,08,15.20
2007,10,13,14,09,15.20
2007,10,13,14,10,15.20
2007,10,13,14,11,15.10
2007,10,13,14,12,15.00
2007,10,13,14,13,15.00
2007,10,13,14,14,15.00
2007,10,13,14,15,15.00
2007,10,13,14,16,15.00
2007,10,13,14,17,15.00
2007,10,13,14,18,15.00
2007,10,13,14,19,15.10
2007,10,13,14,20,15.20
2007,10,13,14,21,15.20
2007,10,13,14,22,15.20
2007,10,13,14,23,15.20
2007,10,13,14,24,15.20
2007,10,13,14,25,15.10
2007,10,13,14,26,15.00
2007,10,13,14,27,15.00
2007,10,13,14,28,15.00
2007,10,13,14,29,15.10
2007,10,13,14,30,15.10
2007,10,13,14,31,15.20
2007,10,13,14,32,15.30
2007,10,13,14,33,15.40
2007,10,13,14,34,15.40
2007,10,13,14,35,15.30
2007,10,13,14,36,15.30
2007,10,13,14,37,15.30
2007,10,13,14,38,15.30
2007,10,13,14,39,15.30
2007,10,13,14,40,15.30
2007,10,13,14,41,15.30
2007,10,13,14,42,15.30
2007,10,13,14,43,15.30
2007,10,13,14,44,15.30
2007,10,13,14,45,15.30
2007,10,13,14,46,15.30
2007,10,13,14,47,15.20
2007,10,13,14,48,15.20
2007,10,13,14,49,15.10
2007,10,13,14,50,15.00
2007,10,13,14,51,15.00
2007,10,13,14,52,15.00
2007,10,13,14,53,14.80
2007,10,13,14,54,14.70
2007,10,13,14,55,14.70
2007,10,13,14,56,14.70
2007,10,13,14,57,14.70
2007,10,13,14,58,14.70
2007,10,13,14,59,14.70
2007,10,13,15,00,14.70
2007,10,13,15,01,14.60
2007,10,13,15,02,14.60
2007,10,13,15,03,14.60
2007,10,13,15,04,14.60
2007,10,13,15,05,14.60
2007,10,13,15,06,14.60
2007,10,13,15,07,14.60
2007,10,13,15,08,14.60
2007,10,13,15,09,14.60
2007,10,13,15,10,14.70
2007,10,13,15,11,14.60
2007,10,13,15,12,14.60
2007,10,13,15,13,14.60
2007,10,13,15,14,14.60
2007,10,13,15,15,14.60
2007,10,13,15,16,14.50
2007,10,13,15,17,14.50
2007,10,13,15,18,14.50
2007,10,13,15,19,14.40
2007,10,13,15,20,14.40
2007,10,13,15,21,14.40
2007,10,13,15,22,14.40
2007,10,13,15,23,14.40
2007,10,13,15,24,14.40
2007,10,13,15,25,14.40
2007,10,13,15,26,14.50
2007,10,13,15,27,14.50
2007,10,13,15,28,14.50
2007,10,13,15,29,14.50
2007,10,13,15,30,14.50
2007,10,13,15,31,14.50
2007,10,13,15,32,14.50
2007,10,13,15,33,14.40
2007,10,13,15,34,14.40
2007,10,13,15,35,14.50
2007,10,13,15,36,14.50
2007,10,13,15,37,14.50
2007,10,13,15,38,14.60
2007,10,13,15,39,14.60
2007,10,13,15,40,14.60
2007,10,13,15,41,14.60
2007,10,13,15,42,14.70
2007,10,13,15,43,14.70
2007,10,13,15,44,14.80
2007,10,13,15,45,14.80
2007,10,13,15,46,14.90
2007,10,13,15,47,15.00
2007,10,13,15,48,15.00
2007,10,13,15,49,15.00
2007,10,13,15,50,15.00
2007,10,13,15,51,15.00
2007,10,13,15,52,15.00
2007,10,13,15,53,15.00
2007,10,13,15,54,15.00
2007,10,13,15,55,15.00
2007,10,13,15,56,15.00
2007,10,13,15,57,14.90
2007,10,13,15,58,14.70
2007,10,13,15,59,14.60
2007,10,13,16,00,14.60
2007,10,13,16,01,14.50
2007,10,13,16,02,14.50
2007,10,13,16,03,14.40
2007,10,13,16,04,14.40
2007,10,13,16,05,14.40
2007,10,13,16,06,14.30
2007,10,13,16,07,14.30
2007,10,13,16,08,14.30
2007,10,13,16,09,14.20
2007,10,13,16,10,14.20
2007,10,13,16,11,14.20
2007,10,13,16,12,14.20
2007,10,13,16,13,14.10
2007,10,13,16,14,14.10
2007,10,13,16,15,14.10
2007,10,13,16,16,14.10
2007,10,13,16,17,14.10
2007,10,13,16,18,14.00
2007,10,13,16,19,14.00
2007,10,13,16,20,14.00
2007,10,13,16,21,14.00
2007,10,13,16,22,14.00
2007,10,13,16,23,14.00
2007,10,13,16,24,14.00
2007,10,13,16,25,14.00
2007,10,13,16,26,14.00
2007,10,13,16,27,14.00
2007,10,13,16,28,13.90
2007,10,13,16,29,13.90
2007,10,13,16,30,13.90
2007,10,13,16,31,13.90
2007,10,13,16,32,13.90
2007,10,13,16,33,13.90
2007,10,13,16,34,13.90
2007,10,13,16,35,13.90
2007,10,13,16,36,13.90
2007,10,13,16,37,13.90
2007,10,13,16,38,13.90
2007,10,13,16,39,13.90
2007,10,13,16,40,13.90
2007,10,13,16,41,13.80
2007,10,13,16,42,13.80
2007,10,13,16,43,13.80
2007,10,13,16,44,13.80
2007,10,13,16,45,13.80
2007,10,13,16,46,13.80
2007,10,13,16,47,13.70
2007,10,13,16,48,13.70
2007,10,13,16,49,13.70
2007,10,13,16,50,13.70
2007,10,13,16,51,13.70
2007,10,13,16,52,13.70
2007,10,13,16,53,13.70
2007,10,13,16,54,13.60
2007,10,13,16,55,13.60
2007,10,13,16,56,13.60
2007,10,13,16,57,13.60
2007,10,13,16,58,13.60
2007,10,13,16,59,13.60
2007,10,13,17,00,13.50
2007,10,13,17,01,13.50
2007,10,13,17,02,13.40
2007,10,13,17,03,13.40
2007,10,13,17,04,13.40
2007,10,13,17,05,13.40
2007,10,13,17,06,13.30
2007,10,13,17,07,13.30
2007,10,13,17,08,13.30
2007,10,13,17,09,13.30
2007,10,13,17,10,13.30
2007,10,13,17,11,13.20
2007,10,13,17,12,13.20
2007,10,13,17,13,13.20
2007,10,13,17,14,13.20
2007,10,13,17,15,13.10
2007,10,13,17,16,13.10
2007,10,13,17,17,13.10
2007,10,13,17,18,13.10
2007,10,13,17,19,13.00
2007,10,13,17,20,13.00
2007,10,13,17,21,13.00
2007,10,13,17,22,13.00
2007,10,13,17,23,13.00
2007,10,13,17,24,12.90
2007,10,13,17,25,12.90
2007,10,13,17,26,12.90
2007,10,13,17,27,12.80
2007,10,13,17,28,12.80
2007,10,13,17,29,12.80
2007,10,13,17,30,12.70
2007,10,13,17,31,12.70
2007,10,13,17,32,12.60
2007,10,13,17,33,12.60
2007,10,13,17,34,12.50
2007,10,13,17,35,12.40
2007,10,13,17,36,12.40
2007,10,13,17,37,12.30
2007,10,13,17,38,12.20
2007,10,13,17,39,12.20
2007,10,13,17,40,12.20
2007,10,13,17,41,12.10
2007,10,13,17,42,12.10
2007,10,13,17,43,12.00
2007,10,13,17,44,12.00
2007,10,13,17,45,11.90
2007,10,13,17,46,11.80
2007,10,13,17,47,11.80